sat.trackr.live / text

‹ back to catalog

GSAT0212 (GALILEO 16)

NORAD 41860 · 2016-069B

PAYLOAD ACTIVE UNKNOWN

§ Identity

Operator
Country
ESA
Launch date
2016-11-17
Launch site
FRGUI
Launch vehicle
Mass (kg)
RCS (m²)
2.79

Purposes: earth_obs, nav

External: N2YO · Heavens-Above · Gunter

§ Orbital elements

Epoch: 2026-09-19T15:01:12.708192Z

Period
844.70 min
Inclination
55.5577°
Eccentricity
0.0003871
Mean motion
1.70474171 rev/d
Perigee alt
23,210.7 km
Apogee alt
23,233.6 km
Semi-major
29,600.3 km
B*
0.0000e+0
RAAN
98.4663°
Arg perigee
42.1200°
Mean anomaly
317.9843°
Rev number
6,126

§ Raw data

GSAT0212 (GALILEO 16)1 41860U 16069B   26262.62584153  .00000024  00000+0  00000+0 0  99972 41860  55.5577  98.4663 0003871  42.1200 317.9843  1.70474171 61261

JSON: /api/v1/satellites/41860 · /tle

For live sub-satellite position, see the globe view (requires WebGL).

§ Visibility from observer

Set your observer location to see the next 7 days of passes ≥ 10°. The values pass through the URL so the page stays shareable.

No JS? Fill the form by hand. The geolocation button needs JavaScript.